Temp_Advection
nan nan nan nan nan nan nan nan nan nan nan nan nan nan nan nan nan nan nan nan nan nan nan nan nan nan nan nan nan nan nan nan nan nan nan nan nan nan nan nan nan nan nan
nan 0 0 -0 1 1 1 -1 1 0 0 -0 -0 -0 0 0 0 0 -0 0 0 0 0 0 0 0 0 0 0 0 -0 -0 -0 -0 -0 -0 -0 0 0 0 0 0 nan
nan 0 -0 1 0 0 -2 0 1 1 0 0 1 0 0 -0 -0 -1 -0 -0 0 0 0 0 0 0 0 0 0 0 0 0 -0 -0 -0 -0 -0 -0 0 0 0 0 nan
nan -0 -0 -1 -1 -1 -1 3 2 -0 -0 1 -0 -1 -0 -1 -1 -0 0 0 0 0 0 0 0 0 0 0 0 0 0 0 0 0 -0 -0 0 -0 -0 0 0 0 nan
nan -0 -0 -2 0 -0 1 0 -0 -0 -0 -1 -0 0 -0 -0 0 0 1 1 0 0 0 0 0 0 0 0 0 0 0 0 0 0 0 0 0 -0 -0 -0 0 0 nan
nan 0 -1 1 1 0 -0 -0 1 -0 -0 -0 1 -0 -0 1 0 0 0 0 -0 0 0 0 0 0 0 0 0 0 0 0 0 0 0 0 0 0 0 0 0 0 nan
nan 1 1 1 1 1 0 1 1 0 -0 -0 -0 -1 0 -0 -1 -0 -0 0 -0 -0 -0 0 0 0 0 0 0 0 0 0 0 0 0 0 0 0 0 0 0 0 nan
nan -0 0 0 -0 0 -1 0 1 1 -1 -1 -1 -0 -1 -1 -1 -0 0 -0 -0 -0 0 0 1 0 0 0 0 0 0 0 0 0 0 0 0 0 0 0 0 0 nan
nan -0 -0 -0 0 -0 -1 -1 -0 -1 -2 -1 -1 -1 -0 -1 0 1 0 -0 -0 1 1 1 1 0 -0 0 0 0 0 0 0 0 0 0 0 0 0 0 0 0 nan
nan 0 0 -0 -0 -1 -1 0 0 -0 -0 -0 0 0 0 -1 1 0 0 0 1 1 1 0 0 0 -0 0 0 0 0 0 0 0 0 0 0 0 0 0 0 0 nan
nan 0 0 0 0 1 1 -0 -0 1 -0 0 1 0 -2 -1 1 1 0 0 0 1 1 0 0 -0 0 0 0 0 0 0 0 0 0 0 0 0 0 0 0 0 nan
nan 0 0 0 0 1 1 0 0 -1 -0 2 1 -0 -2 0 2 0 0 1 1 0 1 1 0 0 -0 0 1 0 0 0 0 0 0 0 0 0 0 0 0 0 nan
nan -1 0 0 0 1 1 0 0 -0 1 1 1 -0 -1 1 -0 1 2 1 1 1 1 0 0 0 -0 -0 1 1 1 0 0 1 0 0 0 0 0 0 0 0 nan
nan -1 -1 0 0 1 0 -0 -0 -0 0 1 0 -2 -0 1 1 2 2 1 1 1 0 1 1 1 -0 0 1 1 1 1 0 1 1 0 0 0 0 0 0 0 nan
nan -0 -0 -0 0 0 1 1 -0 -0 0 1 0 0 0 1 1 1 0 1 1 -0 1 2 1 1 -0 0 1 1 1 1 1 1 0 0 0 0 0 0 0 0 nan
nan -0 -0 -0 -0 0 0 0 1 1 0 0 0 0 0 0 0 0 1 0 -0 1 2 1 0 0 0 0 1 1 1 1 1 1 0 0 0 0 0 0 1 0 nan
nan -1 -0 0 0 0 0 0 0 1 1 0 1 0 0 1 -0 0 -0 -1 1 1 0 -0 1 2 1 1 1 0 1 1 1 1 0 0 0 0 0 0 0 0 nan
nan -0 -0 0 0 -0 -0 0 0 1 1 0 0 0 0 -0 -0 -1 -0 1 0 2 -0 -0 3 2 2 2 1 0 1 1 1 0 0 0 0 0 0 1 1 0 nan
nan -0 -0 0 0 -0 0 0 0 0 0 0 -0 0 0 0 0 0 1 -0 0 0 0 1 2 2 1 0 -0 0 1 1 1 0 0 1 1 1 1 1 1 0 nan
nan 0 0 -0 0 0 0 0 0 0 0 0 0 0 0 0 0 0 0 0 1 1 1 2 1 0 1 1 -0 1 1 0 0 0 0 0 1 1 1 1 0 0 nan
nan 0 0 0 -0 -0 0 0 0 0 0 0 0 0 0 0 0 0 0 0 0 1 1 1 1 1 1 0 0 1 0 0 0 0 0 1 1 0 1 1 0 1 nan
nan 0 0 -0 -0 0 -0 -0 -0 -0 0 0 0 0 0 0 0 0 0 0 0 0 0 0 1 1 0 0 0 0 0 0 1 0 0 1 1 1 1 1 1 1 nan
nan -0 0 0 -0 0 0 -0 -0 -0 -0 -0 -0 0 0 0 0 0 0 0 0 0 0 0 0 1 1 0 -0 0 1 1 0 0 1 1 1 1 1 1 1 0 nan
nan 0 -0 -0 -0 -0 -0 -0 -0 -0 -0 -0 0 0 0 0 0 0 0 0 0 0 0 0 0 0 0 -0 -0 0 0 0 0 1 1 1 1 1 1 1 0 0 nan
nan -0 -0 -0 0 0 -0 -0 -0 -0 -0 -0 -0 0 0 0 0 0 0 0 0 0 0 -0 0 0 0 0 0 0 0 0 1 1 1 1 1 0 0 0 0 0 nan
nan nan nan nan nan nan nan nan nan nan nan nan nan nan nan nan nan nan nan nan nan nan nan nan nan nan nan nan nan nan nan nan nan nan nan nan nan nan nan nan nan nan nan
Wind_Speed
27 31 30 31 24 28 35 37 34 33 34 33 31 29 27 24 22 20 18 16 15 13 11 10 8 8 8 8 9 10 10 11 11 10 9 7 4 4 4 4 3 3 3
22 27 37 38 36 28 31 33 33 37 36 35 33 30 27 25 22 21 20 18 16 14 12 11 10 9 9 10 10 10 11 11 13 11 9 7 6 6 5 5 4 1 2
26 26 32 36 33 34 36 31 26 40 39 33 36 32 29 27 26 25 24 21 18 15 14 13 12 11 11 11 10 11 11 11 13 12 8 5 6 11 9 7 6 4 2
28 32 36 41 38 35 21 31 28 40 40 38 38 36 31 31 28 26 23 23 20 17 16 15 14 13 13 12 11 11 12 12 12 14 16 10 6 8 8 11 9 8 5
31 35 40 39 42 42 31 37 25 37 47 43 38 38 37 32 29 28 28 26 23 20 19 18 17 16 14 14 13 13 12 12 13 13 13 13 12 11 7 10 13 11 8
30 35 40 40 43 43 43 32 31 41 50 45 43 41 38 35 32 31 31 29 25 22 21 20 19 18 17 16 14 14 14 13 13 13 13 12 11 12 12 10 14 13 10
23 34 36 41 48 42 40 43 43 46 46 50 49 45 41 39 35 33 32 30 29 25 21 20 21 20 18 17 16 16 15 14 14 13 13 12 12 11 12 10 13 12 12
12 25 34 33 36 39 42 45 48 48 46 50 48 44 38 38 35 36 37 34 29 28 21 20 21 20 20 19 18 17 16 16 15 15 14 13 13 12 11 12 13 12 13
10 15 25 33 36 37 39 43 53 51 48 47 50 50 46 45 44 43 39 37 32 31 26 22 22 22 21 20 19 19 18 17 16 16 15 14 13 13 12 12 12 14 12
14 10 15 26 33 36 36 36 40 50 53 45 46 48 51 45 50 46 43 40 35 31 30 27 25 24 22 21 21 20 20 19 18 17 16 15 14 14 13 12 11 13 14
18 21 11 14 25 32 34 38 40 44 51 51 43 43 50 51 50 53 48 44 38 33 31 30 28 25 23 22 22 22 21 20 19 19 17 15 15 14 14 13 11 10 11
26 21 13 7 13 23 32 36 38 39 41 46 58 54 53 58 54 52 48 44 39 36 34 35 31 27 24 23 23 23 22 22 21 19 18 17 16 16 14 13 12 10 10
31 26 19 10 8 13 23 31 37 40 39 40 46 56 60 58 51 50 48 47 43 41 37 37 35 31 28 23 25 24 23 22 21 19 19 17 17 16 15 14 13 13 12
27 24 20 15 9 10 13 25 32 33 35 36 40 46 54 53 56 54 51 44 46 45 42 40 39 34 29 28 27 24 24 24 22 20 20 19 17 15 14 15 14 15 14
23 22 20 18 15 10 9 17 24 26 30 31 33 37 43 49 52 53 49 47 48 46 46 43 39 37 33 30 28 26 25 24 23 22 21 19 17 16 16 16 16 16 16
24 21 22 21 15 14 12 12 16 20 24 28 31 32 35 34 41 51 52 58 50 47 48 44 37 38 36 32 29 27 25 24 24 24 21 20 18 18 17 16 17 16 16
23 16 16 17 14 12 11 10 11 14 17 20 25 28 29 29 33 26 36 30 39 41 39 38 46 42 39 34 29 26 24 25 25 24 22 20 19 18 17 17 17 18 17
15 11 8 7 7 9 10 9 8 12 13 16 16 19 24 24 24 26 23 28 30 37 37 38 45 43 42 34 27 22 24 24 25 23 23 21 19 18 18 18 19 18 17
7 7 7 8 8 8 8 6 4 5 9 11 13 13 16 19 20 24 25 29 28 20 20 23 26 39 35 30 26 26 24 24 26 25 23 22 21 20 19 20 20 18 18
2 1 1 0 2 2 1 3 5 6 6 7 7 7 8 9 11 13 15 18 18 26 29 33 36 35 34 30 26 31 26 26 30 27 25 23 22 20 21 21 20 20 19
9 7 9 8 7 7 8 8 8 7 6 6 7 8 8 8 8 8 9 9 12 17 22 26 28 28 26 26 25 25 27 30 29 28 27 25 24 23 21 21 20 17 16
14 11 13 14 13 11 9 9 8 8 7 5 5 6 6 7 8 10 10 11 13 14 15 18 19 19 19 21 22 25 26 26 27 28 26 24 24 23 22 21 19 18 19
16 13 14 13 13 13 12 9 10 7 4 3 2 3 3 5 8 10 11 13 13 14 15 16 19 21 22 23 25 25 27 27 27 25 22 21 22 22 22 21 19 21 22
17 14 13 16 16 15 13 13 11 9 6 2 0 1 1 1 3 5 7 10 11 13 16 19 20 20 21 21 25 25 27 27 26 25 25 23 22 23 22 22 22 22 21
17 16 16 16 17 14 14 13 13 12 10 7 3 1 1 1 2 2 4 5 7 9 11 13 15 17 21 23 26 29 29 28 28 26 24 25 27 27 25 24 21 23 24
14 14 15 15 16 14 12 11 11 10 10 7 4 2 1 1 1 1 2 4 6 8 9 11 12 12 14 17 19 23 24 25 27 27 28 28 28 28 25 23 24 29 29
Wind_Direction
231 222 208 201 211 218 224 209 204 201 206 205 205 207 207 205 206 205 206 206 205 207 209 212 212 209 202 197 193 190 188 189 185 179 167 163 156 149 156 145 132 109 78
218 224 211 214 227 213 219 206 209 206 208 211 209 209 209 210 211 209 210 210 210 212 214 219 219 218 215 208 203 199 196 194 193 191 185 185 196 191 184 170 160 138 82
212 208 204 205 206 203 208 226 232 211 209 214 210 210 208 213 212 211 213 213 212 214 220 224 225 225 223 218 212 209 206 207 205 202 198 192 206 193 198 193 196 201 211
220 211 207 212 208 196 202 205 265 221 214 214 213 209 211 214 216 215 214 215 216 217 223 227 229 230 230 227 222 217 216 216 219 218 218 234 230 191 192 206 207 210 228
222 219 216 216 217 213 213 205 251 234 217 216 217 210 214 218 220 217 221 220 219 218 226 229 231 233 234 230 228 227 224 223 224 223 225 227 224 218 213 204 203 209 220
228 226 221 216 208 210 215 226 207 215 219 221 218 216 218 218 220 223 227 223 223 223 228 233 234 235 235 235 233 230 229 226 224 224 230 232 233 234 223 221 205 213 218
233 226 225 220 218 222 214 215 210 221 222 223 220 218 217 219 219 227 231 230 222 222 228 237 240 239 238 237 236 235 233 234 231 229 230 235 241 242 233 231 211 210 212
266 229 226 227 225 224 221 218 220 224 229 228 222 224 226 224 222 223 230 233 231 229 231 239 238 235 235 236 236 236 236 234 233 234 233 234 238 240 235 234 229 218 217
322 246 232 226 230 230 227 227 226 225 221 222 229 223 222 227 221 220 223 230 231 229 231 231 233 234 234 235 237 237 237 237 234 234 235 235 235 238 239 235 234 236 231
28 352 244 234 229 232 235 233 233 229 228 231 226 220 220 233 230 226 222 228 232 228 231 228 229 233 233 234 235 236 235 235 236 236 237 237 237 235 237 233 232 238 242
6 358 340 246 237 236 234 239 237 235 229 228 227 226 223 229 233 230 226 224 230 229 226 229 229 234 235 235 236 236 236 235 235 238 237 234 233 235 236 238 233 233 229
329 337 328 314 251 237 232 232 237 240 238 234 231 230 232 231 233 235 233 231 230 228 227 229 226 232 233 234 236 236 237 237 236 234 235 232 231 231 230 232 239 234 222
316 311 316 305 291 255 238 231 235 236 242 240 238 231 233 237 236 240 240 234 231 229 230 231 229 229 227 235 236 237 238 236 237 235 233 230 230 228 231 231 232 236 234
305 302 294 294 293 280 248 232 232 235 240 240 241 237 232 235 241 242 241 239 232 230 229 233 229 228 233 234 232 233 237 236 233 230 228 228 227 227 227 234 237 236 237
309 299 281 286 278 277 280 246 241 240 235 237 242 244 244 240 238 242 245 247 241 234 232 230 232 230 227 227 230 230 232 234 234 229 226 224 224 222 222 226 234 236 236
306 300 281 259 281 275 278 266 257 244 242 241 240 242 241 242 244 246 249 244 237 240 235 230 231 235 232 227 228 229 227 230 228 228 225 221 219 223 223 227 227 232 238
298 294 299 265 262 267 273 276 265 255 245 246 246 247 246 245 242 243 247 244 240 238 243 236 234 231 231 228 225 227 226 226 227 225 221 219 220 222 226 227 229 230 230
278 271 277 265 255 264 278 282 267 252 234 243 243 246 247 248 245 233 233 248 257 250 236 225 229 225 224 219 214 226 227 227 225 223 222 219 217 221 224 227 229 228 228
260 259 258 259 261 265 272 271 247 241 221 229 239 243 239 239 239 238 231 223 220 243 243 246 242 229 223 221 205 213 225 225 228 222 219 218 218 218 218 220 222 224 226
97 135 112 311 226 260 221 151 144 156 169 181 201 214 220 225 229 232 237 243 235 228 227 222 226 227 229 219 220 219 220 226 224 219 219 220 221 217 220 223 223 225 229
83 93 102 96 99 97 99 107 111 125 143 169 179 183 188 205 226 240 250 254 248 245 241 234 230 227 225 225 219 220 224 225 223 222 219 219 220 219 220 224 227 229 230
90 80 92 86 81 86 93 96 92 89 98 125 170 188 198 208 223 230 238 243 244 245 249 244 237 227 221 225 224 223 228 228 227 226 225 226 223 224 224 223 223 218 220
86 75 76 82 75 72 73 74 64 60 68 84 112 131 176 215 227 230 230 240 243 240 239 236 230 226 223 224 222 224 225 226 225 227 227 228 227 227 224 224 220 220 222
84 80 73 74 70 58 54 51 42 40 40 36 242 226 207 234 251 241 235 233 237 238 235 230 230 226 221 223 227 224 224 223 225 224 221 220 222 224 225 221 217 223 227
78 75 73 67 64 55 45 38 27 10 1 354 338 257 222 251 274 257 244 234 233 236 240 243 242 238 233 234 232 231 227 226 225 224 220 215 214 216 217 218 222 228 229
91 81 74 68 62 57 54 46 35 23 14 9 8 24 75 173 201 216 237 248 241 238 237 237 240 238 237 236 236 235 233 231 229 225 223 219 219 216 216 223 230 231 229
Height
1445 1449 1453 1457 1461 1469 1474 1479 1484 1489 1495 1502 1506 1510 1512 1516 1520 1523 1526 1528 1530 1533 1535 1537 1539 1541 1542 1542 1543 1545 1547 1548 1550 1553 1554 1555 1556 1556 1556 1556 1556 1556 1556
1443 1446 1450 1455 1458 1462 1469 1471 1477 1486 1491 1498 1502 1505 1511 1514 1518 1521 1524 1526 1528 1530 1533 1536 1538 1539 1540 1541 1542 1543 1545 1547 1549 1551 1553 1555 1557 1556 1556 1555 1555 1556 1556
1437 1441 1445 1447 1451 1452 1458 1463 1472 1483 1488 1493 1497 1501 1506 1510 1513 1517 1520 1523 1525 1527 1530 1533 1535 1538 1539 1540 1540 1542 1543 1545 1547 1548 1551 1552 1552 1553 1554 1554 1555 1555 1554
1431 1435 1438 1441 1446 1451 1449 1457 1472 1478 1484 1486 1490 1494 1499 1503 1508 1514 1517 1520 1522 1524 1527 1530 1533 1535 1537 1538 1539 1539 1541 1543 1544 1546 1547 1549 1551 1551 1552 1553 1553 1554 1554
1425 1426 1431 1433 1438 1443 1444 1453 1464 1469 1478 1479 1483 1488 1493 1499 1505 1509 1512 1516 1517 1520 1523 1527 1529 1532 1534 1535 1537 1538 1538 1540 1542 1543 1544 1546 1547 1548 1549 1549 1551 1552 1552
1420 1423 1426 1430 1432 1437 1444 1448 1451 1458 1468 1472 1477 1482 1487 1493 1498 1503 1507 1511 1513 1516 1519 1523 1525 1528 1530 1532 1534 1535 1536 1537 1538 1540 1541 1543 1545 1546 1547 1547 1548 1550 1550
1413 1417 1421 1425 1429 1432 1437 1442 1448 1451 1456 1463 1471 1476 1482 1485 1490 1497 1502 1505 1507 1510 1514 1518 1521 1523 1526 1528 1530 1532 1533 1535 1536 1536 1537 1539 1542 1543 1545 1545 1546 1546 1548
1412 1413 1416 1421 1424 1427 1431 1437 1442 1447 1450 1460 1466 1471 1475 1477 1481 1487 1495 1499 1502 1505 1509 1513 1517 1518 1521 1523 1525 1527 1529 1531 1533 1534 1533 1534 1536 1538 1540 1543 1544 1544 1544
1409 1410 1413 1416 1419 1423 1427 1431 1436 1442 1447 1453 1458 1463 1467 1468 1472 1478 1485 1491 1495 1499 1503 1507 1512 1514 1515 1518 1521 1522 1524 1527 1528 1530 1530 1531 1532 1534 1536 1539 1541 1543 1542
1408 1408 1409 1412 1416 1419 1423 1426 1430 1434 1439 1445 1448 1454 1457 1463 1468 1471 1475 1483 1487 1491 1497 1502 1506 1508 1510 1513 1515 1518 1519 1521 1524 1525 1526 1528 1529 1530 1532 1534 1536 1539 1540
1406 1408 1407 1408 1411 1415 1418 1421 1424 1429 1432 1437 1441 1445 1450 1454 1459 1462 1466 1472 1480 1484 1489 1496 1501 1502 1504 1507 1509 1513 1514 1516 1519 1521 1523 1523 1524 1527 1528 1530 1531 1534 1536
1404 1404 1404 1405 1406 1408 1412 1414 1416 1419 1422 1427 1434 1438 1444 1446 1450 1455 1459 1465 1472 1477 1482 1488 1492 1495 1498 1500 1504 1507 1510 1513 1513 1514 1518 1519 1519 1521 1524 1526 1530 1532 1533
1401 1401 1400 1400 1401 1402 1405 1408 1408 1410 1416 1420 1423 1429 1434 1438 1443 1448 1453 1457 1463 1470 1476 1482 1485 1487 1490 1491 1497 1501 1504 1506 1509 1511 1512 1514 1515 1517 1520 1523 1525 1530 1532
1400 1397 1395 1397 1397 1397 1397 1401 1403 1405 1410 1414 1417 1421 1425 1430 1436 1441 1444 1449 1455 1461 1467 1474 1477 1479 1481 1485 1490 1493 1498 1503 1503 1505 1507 1510 1511 1513 1515 1520 1523 1525 1528
1396 1395 1394 1393 1393 1395 1396 1397 1398 1401 1404 1407 1410 1412 1417 1421 1425 1429 1433 1440 1439 1450 1456 1462 1468 1473 1475 1477 1482 1484 1490 1496 1500 1501 1503 1504 1507 1509 1510 1514 1518 1521 1523
1390 1387 1387 1389 1391 1391 1392 1394 1394 1396 1399 1402 1404 1407 1410 1414 1416 1422 1423 1428 1434 1440 1446 1448 1458 1465 1469 1472 1476 1480 1482 1488 1491 1495 1498 1499 1501 1507 1508 1510 1514 1518 1519
1386 1384 1382 1383 1386 1387 1388 1389 1390 1391 1393 1396 1398 1401 1403 1406 1408 1409 1415 1418 1425 1428 1434 1439 1447 1452 1461 1467 1469 1474 1477 1481 1486 1490 1492 1493 1496 1501 1504 1507 1512 1514 1514
1382 1382 1381 1382 1383 1383 1383 1384 1386 1387 1389 1392 1394 1396 1399 1401 1404 1406 1410 1418 1421 1424 1426 1430 1439 1445 1452 1458 1460 1467 1472 1476 1481 1484 1487 1487 1490 1494 1498 1503 1508 1510 1511
1379 1380 1379 1381 1382 1382 1382 1382 1383 1385 1387 1389 1392 1393 1396 1399 1402 1405 1406 1415 1414 1415 1423 1430 1434 1440 1445 1449 1447 1458 1464 1469 1477 1479 1481 1484 1485 1487 1490 1496 1500 1502 1506
1380 1380 1379 1380 1381 1381 1381 1382 1383 1384 1386 1388 1390 1393 1395 1397 1400 1404 1407 1409 1404 1412 1420 1424 1430 1433 1437 1443 1443 1449 1454 1460 1470 1472 1477 1480 1483 1483 1487 1491 1492 1496 1502
1382 1382 1379 1380 1382 1383 1382 1382 1383 1385 1386 1388 1390 1392 1394 1396 1399 1401 1404 1406 1409 1413 1416 1419 1424 1427 1432 1436 1440 1445 1451 1458 1462 1466 1468 1473 1478 1481 1482 1486 1488 1492 1498
1383 1386 1381 1382 1384 1384 1384 1385 1386 1387 1388 1389 1391 1392 1394 1396 1398 1400 1401 1404 1408 1410 1413 1417 1421 1424 1429 1435 1438 1444 1449 1453 1457 1462 1465 1469 1473 1477 1479 1482 1485 1489 1492
1383 1388 1385 1384 1386 1386 1386 1386 1388 1388 1389 1390 1392 1392 1394 1395 1397 1399 1400 1402 1404 1406 1410 1412 1417 1422 1426 1431 1436 1441 1445 1449 1454 1458 1461 1465 1469 1474 1474 1478 1480 1484 1487
1385 1388 1389 1388 1386 1387 1387 1387 1389 1390 1390 1391 1391 1392 1393 1394 1396 1397 1399 1400 1403 1406 1409 1412 1416 1419 1423 1427 1431 1435 1439 1442 1446 1451 1455 1460 1463 1468 1469 1473 1476 1478 1483
1388 1390 1390 1390 1389 1389 1388 1389 1389 1390 1391 1392 1392 1392 1393 1395 1396 1398 1399 1401 1403 1406 1409 1411 1414 1416 1419 1422 1426 1429 1432 1436 1441 1447 1450 1453 1456 1459 1462 1466 1470 1474 1478
1392 1392 1393 1393 1392 1392 1391 1392 1392 1393 1393 1394 1394 1393 1393 1394 1396 1397 1398 1400 1402 1404 1406 1408 1410 1413 1415 1418 1421 1424 1428 1432 1436 1439 1441 1445 1449 1453 1457 1461 1465 1469 1472